[[{"header":{"parameterUnit":"m.s-1","parameterCategory":1,"la1":30.2991,"la2":30.254,"lo1":-89.0895,"lo2":-89.0444,"dy":0.0017,"dx":0.0017,"nx":28,"ny":28,"refTime":"2024-07-13T03:00:00:Z","depth":0,"parameterNumber":2,"parameterNumberName":"U-component_of_WINDS"},"data":[0,0,0,0,0,0,0,0,0,0,0,0,0,0,0,0,0,0,0,0,0,0,0,0,0,0,0,0,0,0,0,0,0,0,0,0,0,0,0,0,0,0,0,0,0,0,0,0,0,0,0,0,0,0,0,0,0,0,4.1626,4.1628,0,4.1775,4.1777,4.1779,4.1727,4.1723,4.172,4.1717,4.1873,4.188,4.1887,0,0,0,0,0,0,0,0,0,0,0,0,0,4.1297,4.1303,4.1626,4.1628,4.163,4.1775,4.1777,4.1779,4.1727,4.1723,4.1719,4.1715,4.187,4.1879,4.1888,0,0,0,0,0,0,0,0,0,0,0,0,0,4.1442,4.1305,4.1626,4.1621,4.1622,4.1775,4.1777,4.178,4.1728,4.1723,4.1718,4.1713,4.1867,4.1878,4.1889,4.2055,0,0,4.1922,4.1927,0,0,0,0,0,0,0,0,4.1434,4.1455,4.162,4.1622,4.1623,4.1727,4.1718,4.1872,4.1729,4.1688,4.1717,4.1711,4.1829,4.1842,4.1881,4.2063,4.2069,4.1923,4.1929,4.1934,4.1937,0,0,0,0,0,0,0,4.1424,4.1448,4.1685,4.1622,4.1625,4.1612,4.1627,4.1747,4.1785,4.1691,4.1688,4.1706,4.1828,4.1871,4.1885,4.2072,4.1923,4.1932,4.1939,4.1943,4.2395,4.24,0,0,0,0,0,0,4.1413,4.144,4.168,4.169,4.1514,4.1622,4.1639,4.1699,4.1783,4.1791,4.171,4.1703,4.1855,4.1872,4.189,4.2089,4.1934,4.1944,4.195,4.2389,4.2396,4.2402,0,0,0,0,0,0,4.1406,4.1435,4.1674,4.1564,4.1593,4.1633,4.1701,4.1705,4.1747,4.1797,4.1804,4.1747,4.1852,4.1875,4.2014,4.2094,4.1949,4.1959,4.2383,4.2391,4.2399,4.2489,0,0,0,0,0,0,4.1397,4.1433,4.1496,4.1566,4.1599,4.1796,4.1706,4.1711,4.1765,4.1758,4.1833,4.1841,4.1849,4.1998,4.2025,4.2106,4.1967,4.2376,4.2387,4.2396,4.248,4.25,4.2517,0,0,0,0,0,4.1385,4.1517,4.15,4.1529,4.168,4.1801,4.182,4.1826,4.1772,4.1836,4.1868,4.1839,4.2081,4.2013,4.2042,4.2128,4.2371,4.2384,4.2396,4.2471,4.2496,4.2517,0,0,0,0,0,0,4.1458,4.1526,4.1508,4.1666,4.1728,4.1792,4.1873,4.1853,4.1932,4.1921,4.1926,4.1944,4.2087,4.2122,4.2045,4.2293,4.2218,4.2237,4.2265,4.2289,4.2307,4.2296,4.1977,0,0,0,0,0,4.1492,4.1584,4.1639,4.1773,4.1805,4.1834,4.1887,4.1886,4.195,4.1977,4.2019,4.2083,4.2173,4.2233,4.2319,4.2484,4.2499,4.2558,4.2576,4.2591,4.2608,4.2696,4.2722,4.2443,4.2442,4.2442,0,0,4.1564,4.1613,4.1671,4.1789,4.1836,4.1931,4.1856,4.1961,4.2031,4.1993,4.2126,4.2159,4.2232,4.2384,4.2453,4.2417,4.2688,4.2607,4.2619,4.2627,4.2711,4.2737,4.2761,4.2451,4.2449,4.2448,0,0,4.1744,4.179,4.1906,4.1955,4.2027,4.2045,4.2073,4.214,4.216,4.2293,4.2266,4.235,4.2506,4.2558,4.2605,4.2802,4.2777,4.283,4.2928,4.3013,4.3035,4.3055,4.3124,4.3149,4.2846,4.2846,4.2846,0,4.1824,4.1966,4.1968,4.2074,4.2126,4.2094,4.2211,4.2259,4.2357,4.2393,4.2351,4.2545,4.2591,4.2754,4.2802,4.2841,4.2873,4.2821,4.3032,4.3052,4.307,4.3136,4.3162,4.2852,4.2851,4.285,4.285,0,4.2061,4.2159,4.2244,4.2337,4.2399,4.251,4.2529,4.2592,4.2585,4.2607,4.2743,4.2797,4.2893,4.2931,4.2927,4.3094,4.3069,4.303,4.2954,4.3102,4.3164,4.3189,4.286,4.2858,4.2856,4.2855,0,0,4.2292,4.2383,4.2414,4.2455,4.2531,4.2608,4.2717,4.2809,4.2862,4.293,4.3021,4.3152,4.3115,4.3169,4.3169,4.3245,4.3395,4.3196,4.3198,4.323,4.3581,4.3609,4.3639,4.3379,4.3384,4.3388,4.3574,0,4.2477,4.2667,4.2672,4.2847,4.2937,4.2907,4.3001,4.3059,4.3082,4.3162,4.3188,4.3281,4.3226,4.3257,4.3331,4.3361,4.3466,4.3348,4.3464,4.3468,4.3446,4.3671,4.3702,4.3876,4.3599,4.3603,4.3606,0,4.2719,4.2792,4.2975,4.3037,4.3075,4.316,4.3243,4.3321,4.3384,4.3396,4.3454,4.3443,4.3554,4.3475,4.3627,4.3547,4.3595,4.3617,4.3624,4.3635,4.3546,4.3687,4.3932,4.3957,4.3644,4.3641,4.3638,0,4.2867,4.3012,4.314,4.3176,4.3251,4.3312,4.3346,4.3405,4.3459,4.3532,4.3567,4.3653,4.37,4.3767,4.3779,4.372,4.3931,4.3854,4.3944,4.3943,4.399,4.3987,4.4244,4.4022,4.4021,4.4021,4.402,0,4.3073,4.3186,4.3207,4.3286,4.3411,4.3415,4.3539,4.3569,4.3621,4.3705,4.3684,4.3763,4.3775,4.3857,4.3867,4.3991,4.4013,4.4025,4.4026,4.4027,4.4025,4.4058,4.4046,4.4028,4.4026,4.4025,4.4023,0,4.3261,4.3279,4.3416,4.3476,4.3493,4.3583,4.3633,4.3708,4.3728,4.3835,4.386,4.3892,4.3987,4.4005,4.4119,4.4125,4.4273,4.4262,4.4251,4.4249,4.4338,4.4329,4.4625,4.4664,4.4417,4.4419,4.4421,0,4.3391,4.3477,4.3544,4.3598,4.3635,4.3722,4.3777,4.3783,4.3841,4.3918,4.3984,4.4077,4.4151,4.4304,4.4338,4.4424,4.4415,4.4513,4.4428,4.4425,4.4415,4.4409,4.4417,4.4529,4.4532,4.4534,4.4536,0,4.3619,4.3623,4.3702,4.3784,4.3849,4.3915,4.3977,4.4022,4.4036,4.4102,4.4198,4.4256,4.4369,4.4461,4.4546,4.4582,4.4562,4.4562,4.4587,4.4588,4.4577,4.4583,4.4294,4.4555,4.4553,4.4552,4.4551,4.455,4.3781,4.3855,4.3914,4.4002,4.4048,4.4106,4.4179,4.4207,4.4287,4.4379,4.4378,4.4483,4.4543,4.4654,4.4695,4.4777,4.4746,4.4783,4.4792,4.4801,4.4809,4.4564,4.4793,4.4792,4.4792,4.4791,4.4791,0,4.4007,4.4043,4.4124,4.421,4.4279,4.4251,4.4318,4.4377,4.447,4.4527,4.4599,4.4709,4.4797,4.4837,4.4924,4.4982,4.4974,4.5004,4.5,4.5008,4.4832,4.4801,4.5009,4.5009,4.5008,4.5008,4.5008,4.5008,4.4133,4.4257,4.4267,4.4413,4.4448,4.4549,4.4589,4.4642,4.4687,4.481,4.4882,4.4907,4.4957,4.5047,4.5126,4.5136,4.5168,4.5203,4.5208,4.5043,4.5021,4.5,4.497,4.521,4.521,4.5376,4.5378,4.5379]},{"header":{"parameterUnit":"m.s-1","parameterCategory":1,"la1":30.2991,"la2":30.254,"lo1":-89.0895,"lo2":-89.0444,"dy":0.0017,"dx":0.0017,"nx":28,"ny":28,"refTime":"2024-07-13T03:00:00:Z","depth":0,"parameterNumber":3,"parameterNumberName":"V-component_of_WINDS"},"data":[0,0,0,0,0,0,0,0,0,0,0,0,0,0,0,0,0,0,0,0,0,0,0,0,0,0,0,0,0,0,0,0,0,0,0,0,0,0,0,0,0,0,0,0,0,0,0,0,0,0,0,0,0,0,0,0,0,0,0.4546,0.4546,0,0.4516,0.4516,0.4515,0.4492,0.4492,0.4491,0.4491,0.4458,0.4458,0.4457,0,0,0,0,0,0,0,0,0,0,0,0,0,0.4582,0.4581,0.4546,0.4546,0.4546,0.4516,0.4516,0.4515,0.4492,0.4492,0.4491,0.4491,0.4459,0.4458,0.4457,0,0,0,0,0,0,0,0,0,0,0,0,0,0.456,0.4581,0.4546,0.453,0.4529,0.4516,0.4516,0.4515,0.4492,0.4492,0.4491,0.4491,0.4459,0.4458,0.4457,0.4457,0,0,0.4454,0.4453,0,0,0,0,0,0,0,0,0.4562,0.4559,0.4533,0.4532,0.453,0.4507,0.4516,0.4496,0.4492,0.4506,0.4491,0.4491,0.4475,0.4473,0.4468,0.4456,0.4454,0.4454,0.4453,0.4453,0.4452,0,0,0,0,0,0,0,0.4563,0.456,0.4534,0.4533,0.4531,0.4524,0.4521,0.4512,0.4492,0.4505,0.4503,0.45,0.4474,0.4469,0.4467,0.4454,0.4454,0.4453,0.4452,0.4452,0.444,0.444,0,0,0,0,0,0,0.4567,0.4562,0.4535,0.4533,0.4545,0.4524,0.452,0.4515,0.4493,0.4489,0.45,0.4499,0.447,0.4468,0.4465,0.4464,0.4453,0.4452,0.4451,0.444,0.444,0.444,0,0,0,0,0,0,0.4568,0.4565,0.4537,0.4547,0.4543,0.4523,0.4518,0.4514,0.4509,0.4489,0.4485,0.4498,0.447,0.4467,0.4459,0.4462,0.4451,0.445,0.4439,0.444,0.444,0.4461,0,0,0,0,0,0,0.4569,0.4566,0.4566,0.4547,0.4542,0.4532,0.4518,0.4514,0.4508,0.4506,0.4487,0.4483,0.447,0.4461,0.4458,0.4461,0.445,0.4439,0.444,0.444,0.446,0.4463,0.4464,0,0,0,0,0,0.4571,0.4573,0.4567,0.4564,0.4543,0.4532,0.4529,0.4514,0.4508,0.4508,0.4495,0.4484,0.4462,0.4461,0.4457,0.446,0.4439,0.4439,0.444,0.4459,0.4462,0.4464,0,0,0,0,0,0,0.4593,0.4571,0.4563,0.456,0.4548,0.4528,0.4528,0.4518,0.4507,0.4506,0.4487,0.4483,0.4477,0.4467,0.4466,0.4458,0.4449,0.4449,0.4465,0.4467,0.4469,0.4472,0.4449,0,0,0,0,0,0.4598,0.4592,0.4572,0.4571,0.4566,0.4548,0.4543,0.4532,0.4519,0.4514,0.45,0.4488,0.4478,0.4472,0.4462,0.4459,0.4454,0.4458,0.446,0.4462,0.4462,0.4459,0.4461,0.4442,0.4442,0.4442,0,0,0.4607,0.4594,0.4591,0.4575,0.4565,0.4558,0.4544,0.4538,0.4532,0.4513,0.4505,0.4494,0.4479,0.4473,0.447,0.4465,0.4466,0.4463,0.4465,0.4464,0.446,0.4462,0.4463,0.4443,0.4443,0.4443,0,0,0.4621,0.4611,0.4608,0.4598,0.4583,0.4571,0.457,0.4552,0.4544,0.4536,0.4521,0.4514,0.4498,0.4488,0.448,0.4489,0.4477,0.4486,0.4496,0.4493,0.4495,0.4496,0.4498,0.4499,0.4486,0.4486,0.4486,0,0.4634,0.4624,0.4608,0.4603,0.4596,0.4578,0.4575,0.4566,0.4548,0.4543,0.4537,0.4516,0.4505,0.4496,0.4498,0.4493,0.4491,0.4488,0.4496,0.4497,0.4498,0.45,0.4501,0.4487,0.4487,0.4487,0.4487,0,0.4641,0.4634,0.4634,0.4618,0.461,0.4606,0.4589,0.4583,0.4573,0.4561,0.4553,0.4538,0.4524,0.4521,0.4511,0.4511,0.4508,0.45,0.449,0.4501,0.4502,0.4503,0.4489,0.4488,0.4488,0.4488,0,0,0.4669,0.4643,0.4643,0.4635,0.4617,0.4611,0.4605,0.4592,0.4587,0.4575,0.457,0.4556,0.4548,0.4539,0.4527,0.4525,0.4531,0.4516,0.4515,0.4519,0.4529,0.4536,0.4537,0.4524,0.4524,0.4524,0.4531,0,0.4679,0.4669,0.4654,0.4649,0.4642,0.4624,0.4619,0.4606,0.4595,0.4587,0.4574,0.4564,0.4554,0.4549,0.4545,0.4531,0.4533,0.4531,0.4518,0.4517,0.4522,0.4538,0.4545,0.4553,0.4531,0.4531,0.4531,0,0.4691,0.468,0.4674,0.4655,0.4651,0.4647,0.4634,0.4626,0.4611,0.4603,0.4593,0.458,0.4572,0.4564,0.4552,0.4551,0.4544,0.4536,0.4536,0.4534,0.4525,0.4537,0.4554,0.4555,0.4532,0.4532,0.4532,0,0.4711,0.4695,0.4689,0.4682,0.4661,0.4658,0.4649,0.4633,0.4626,0.4614,0.4609,0.4596,0.4589,0.4578,0.4562,0.4557,0.4552,0.4542,0.4544,0.4544,0.4544,0.4544,0.456,0.454,0.454,0.454,0.454,0,0.4724,0.4721,0.4698,0.4694,0.4689,0.4672,0.4667,0.4656,0.4643,0.4636,0.4619,0.4613,0.4592,0.4583,0.4569,0.4561,0.4558,0.4551,0.4547,0.4552,0.4553,0.4548,0.4547,0.454,0.454,0.454,0.454,0,0.4746,0.4731,0.4723,0.4703,0.4697,0.4695,0.4677,0.4672,0.466,0.4651,0.4648,0.4628,0.4616,0.4599,0.4582,0.4573,0.4567,0.4561,0.4572,0.457,0.4573,0.4573,0.4586,0.4587,0.4566,0.4567,0.4567,0,0.4756,0.4753,0.4733,0.4727,0.4719,0.471,0.4702,0.4684,0.4677,0.4659,0.4657,0.4644,0.4633,0.4614,0.4598,0.4584,0.4578,0.4584,0.4576,0.4581,0.4578,0.4578,0.4577,0.4586,0.4586,0.4586,0.4586,0,0.4775,0.4767,0.4757,0.4745,0.4737,0.4726,0.4714,0.471,0.4689,0.4682,0.467,0.4661,0.4643,0.4631,0.4615,0.4604,0.4591,0.4589,0.4589,0.4594,0.46,0.4596,0.4577,0.4589,0.4589,0.4588,0.4588,0.4588,0.4791,0.4787,0.4772,0.4761,0.4751,0.474,0.4734,0.4721,0.4711,0.4696,0.4685,0.4674,0.4657,0.4635,0.4625,0.4615,0.4609,0.4609,0.4609,0.4609,0.4611,0.4602,0.4612,0.4611,0.4611,0.4611,0.4611,0,0.4808,0.4797,0.4788,0.4772,0.4764,0.4753,0.4739,0.4732,0.4723,0.4709,0.4698,0.4684,0.4671,0.4653,0.4639,0.4634,0.4628,0.4631,0.4631,0.4628,0.4616,0.4618,0.4636,0.4636,0.4636,0.4636,0.4636,0.4636,0.4816,0.4809,0.48,0.4787,0.4776,0.4765,0.4758,0.4747,0.4736,0.4721,0.4711,0.4699,0.4683,0.4667,0.4655,0.465,0.4645,0.4649,0.4643,0.4632,0.4629,0.4627,0.4629,0.4649,0.4649,0.4655,0.4655,0.4655]}]]